CW0677 Weather Reports


Display with metric or nautical units.
time (UTC)temp
F
wind
direction
speed
MPH
gust
MPH
rain 1hr
in
rain 24hr
in
rain mn
in
humidity
%
barometer
mb
20260510203053 73 46 2.0 6.0 0.00 0.00 0.00 63 1014.0
20260510201553 71 64 1.0 7.0 0.00 0.00 0.00 66 1014.3
20260510200100 70 19 2.0 7.0 0.00 0.00 0.00 68 1014.5
20260510194554 70 302 1.0 7.0 0.00 0.00 0.00 69 1014.5
20260510193107 67 333 4.0 9.0 0.00 0.00 0.00 72 1014.6
20260510191559 68 297 2.0 7.0 0.00 0.00 0.00 72 1014.7
20260510190058 66 331 2.0 6.0 0.00 0.00 0.00 73 1014.8
20260510184555 64 286 1.0 7.0 0.00 0.00 0.00 75 1015.1
20260510183056 63 251 2.0 5.0 0.00 0.00 0.00 76 1015.2
20260510181559 61 181 2.0 8.0 0.00 0.00 0.00 80 1015.3
20260510180059 60 242 3.0 8.0 0.00 0.00 0.00 80 1015.4
20260510174554 60 272 3.0 8.0 0.00 0.00 0.00 82 1015.5
20260510173057 58 258 2.0 5.0 0.00 0.00 0.00 84 1015.5
20260510171559 58 0 0.0 5.0 0.00 0.00 0.00 84 1015.5
20260510170111 57 0 1.0 4.0 0.00 0.00 0.00 85 1015.5
20260510164600 56 275 1.0 4.0 0.00 0.00 0.00 87 1015.5
20260510163056 55 186 2.0 6.0 0.00 0.00 0.00 88 1015.4
20260510161555 55 183 1.0 6.0 0.00 0.00 0.00 89 1015.3
20260510160105 55 181 1.0 5.0 0.00 0.00 0.00 89 1015.2
20260510154617 54 259 1.0 4.0 0.00 0.00 0.00 90 1015.2
20260510153058 54 0 0.0 2.0 0.00 0.00 0.00 91 1015.1
20260510151555 53 0 0.0 0.0 0.00 0.00 0.00 91 1015.0
20260510150105 53 81 1.0 4.0 0.00 0.00 0.00 92 1015.0
20260510144602 53 115 0.0 2.0 0.00 0.00 0.00 92 1014.8
20260510143057 53 0 0.0 3.0 0.00 0.00 0.00 92 1014.9
20260510141554 53 0 0.0 3.0 0.00 0.00 0.00 92 1014.7
20260510140054 53 0 0.0 0.0 0.00 0.00 0.00 93 1014.5
20260510134557 52 0 0.0 2.0 0.00 0.00 0.00 93 1014.2
20260510133058 52 0 0.0 2.0 0.00 0.00 0.00 93 1014.1
20260510131557 52 231 0.0 2.0 0.00 0.00 0.00 93 1014.0
20260510130056 52 0 0.0 2.0 0.00 0.00 0.00 93 1014.1
20260510124610 52 0 1.0 3.0 0.00 0.00 0.00 93 1014.1
20260510123055 52 157 0.0 3.0 0.00 0.00 0.00 93 1014.0
20260510121553 52 129 0.0 3.0 0.00 0.00 0.00 93 1014.0
20260510120053 52 140 1.0 4.0 0.00 0.00 0.00 93 1014.0
20260510114552 52 0 0.0 3.0 0.00 0.00 0.00 93 1014.1
20260510113100 52 0 1.0 4.0 0.00 0.00 0.00 92 1014.2
20260510111614 52 171 1.0 6.0 0.00 0.00 0.00 92 1014.3
20260510110055 52 178 1.0 3.0 0.00 0.00 0.00 92 1014.3
20260510104607 52 209 0.0 4.0 0.00 0.00 0.00 92 1014.2
20260510103056 52 250 1.0 5.0 0.00 0.00 0.00 92 1014.1
20260510101555 53 148 0.0 3.0 0.00 0.00 0.00 92 1014.2
20260510100059 53 191 1.0 4.0 0.00 0.00 0.00 92 1014.1
20260510094555 52 225 1.0 4.0 0.00 0.00 0.00 92 1014.1
20260510093055 52 0 1.0 5.0 0.00 0.00 0.00 91 1014.1
20260510091604 53 178 2.0 5.0 0.00 0.00 0.00 91 1014.0
20260510090104 53 143 1.0 3.0 0.00 0.00 0.00 91 1014.2
20260510084559 53 154 1.0 5.0 0.00 0.00 0.00 91 1014.2
20260510083054 53 0 0.0 3.0 0.00 0.00 0.00 91 1014.3
20260510081552 53 140 2.0 7.0 0.00 0.00 0.00 91 1014.3
20260510080100 53 132 1.0 6.0 0.00 0.00 0.00 91 1014.3
20260510074553 53 174 2.0 6.0 0.00 0.00 0.00 90 1014.3
20260510073055 53 163 1.0 6.0 0.00 0.00 0.00 90 1014.4
20260510071555 53 227 3.0 7.0 0.00 0.00 0.00 90 1014.2
20260510070106 54 217 2.0 5.0 0.00 0.00 0.00 90 1014.2
20260510064608 53 177 2.0 7.0 0.00 0.00 0.00 90 1014.1
20260510063055 53 203 2.0 8.0 0.00 0.00 0.00 89 1014.0
20260510061554 54 0 1.0 9.0 0.00 0.00 0.00 89 1014.0
20260510060053 54 229 4.0 11.0 0.00 0.00 0.00 88 1014.1
20260510054553 54 192 2.0 9.0 0.00 0.00 0.00 88 1014.1
20260510053053 54 184 1.0 8.0 0.00 0.00 0.00 87 1014.1
20260510051605 55 224 1.0 8.0 0.00 0.00 0.00 86 1013.9
20260510044607 56 189 3.0 7.0 0.00 0.00 0.00 85 1013.7
20260510043055 56 215 3.0 7.0 0.00 0.00 0.00 85 1013.6
20260510041606 57 204 2.0 10.0 0.00 0.00 0.00 84 1013.5
20260510040054 57 170 2.0 6.0 0.00 0.00 0.00 82 1013.3
20260510034602 58 217 1.0 6.0 0.00 0.00 0.00 82 1013.0
20260510033057 59 195 3.0 10.0 0.00 0.00 0.00 81 1013.0
20260510031604 60 168 2.0 9.0 0.00 0.00 0.00 79 1013.0
20260510030104 61 230 2.0 7.0 0.00 0.00 0.00 77 1012.9
20260510024555 62 158 4.0 11.0 0.00 0.00 0.00 76 1012.8
20260510023055 63 146 2.0 10.0 0.00 0.00 0.00 75 1012.7
20260510021555 64 178 3.0 10.0 0.00 0.00 0.00 73 1012.7
20260510020054 65 173 3.0 12.0 0.00 0.00 0.00 73 1012.6
20260510014645 66 215 4.0 12.0 0.00 0.00 0.00 72 1012.7
20260510014556 66 215 4.0 12.0 0.00 0.00 0.00 72 1012.7
20260510013058 66 188 3.0 12.0 0.00 0.00 0.00 71 1012.6
20260510011555 68 247 3.0 12.0 0.00 0.00 0.00 70 1012.5
20260510010054 68 229 3.0 12.0 0.00 0.00 0.00 70 1012.7
20260510004553 69 184 5.0 14.0 0.00 0.00 0.00 69 1012.7
20260510003059 69 201 6.0 13.0 0.00 0.00 0.00 68 1012.9
20260510001554 70 198 5.0 14.0 0.00 0.00 0.00 67 1013.0
20260509234604 71 159 5.0 13.0 0.00 0.00 0.00 67 1013.1
20260509233059 73 171 4.0 12.0 0.00 0.00 0.00 65 1013.1
20260509231610 73 207 4.0 12.0 0.00 0.00 0.00 62 1013.3
20260509230106 72 142 4.0 15.0 0.00 0.00 0.00 62 1013.3
20260509224556 74 235 5.0 14.0 0.00 0.00 0.00 62 1013.4
20260509223056 74 177 4.0 13.0 0.00 0.00 0.00 60 1013.5
20260509221559 75 247 2.0 13.0 0.00 0.00 0.00 61 1013.8
20260509220055 74 181 6.0 14.0 0.00 0.00 0.00 60 1013.9
20260509214554 75 184 4.0 11.0 0.00 0.00 0.00 58 1014.0
20260509213057 74 232 4.0 12.0 0.00 0.00 0.00 59 1014.2
20260509211559 75 265 6.0 13.0 0.00 0.00 0.00 61 1014.3
20260509210108 74 192 6.0 11.0 0.00 0.00 0.00 61 1014.3
20260509204555 74 167 4.0 9.0 0.00 0.00 0.00 61 1014.4